Hlavní strana
METAR-TAF:

METAR-TAF

Letiště :

Accomack County Airport

Melfa, Virginie, Spojené státy americké

zeměpisná šířka: 37-39N, zeměpisná délka: 075-46W, výška: 15 m

Aktuální stav počasí

Zpráva byla vytvořena před 34 minutami, v 03:35 UTC
Severoseverovýchodní vítr 3 kt
Teplota 7°C
Vlhkost vzduchu 81%
Tlak 1025 hPa
Viditelnost: 16.1 km
Jasno

METAR: KMFV 310335Z AUTO 02003KT 10SM CLR 07/04 A3028 RMK AO2 T00660040

Čas: 00:09 (04:09 UTC)


TAF: chybějící

Stav a předpovědi počasí z více než 4 000 letišť (zprávy METAR a TAF).

Červené a žluté tečky na mapě představují dostupné meteorologické stanice.

Když kurzor umístíte na tečku, zobrazí se název stanice.

Pak kliknutím zobrazíte stav a předpověď počasí.

Chcete-li změnit mapu, kliknutím na zelené tlačítko se znaménkem +mapu přiblížíte, kliknutím na zelené tlačítko se znaménkem – mapu oddálíte a kliknutím na zelené šipky přejdete na sousední mapy.


METAR-TAF: